Location: Moydans
(44.3997°N, 5.5038°E)
Time: 06:45:45
(UTC+02:00)

Nauka - Pass Details

Date: 28 September 2021
Orbit: 417 x 423 km, 51.6° (Epoch: 19 October)

Event Time Altitude Azimuth Distance (km) Brightness Sun altitude
Rises 20:59:23 0° 300° (WNW) 2,364 ? -17.7°
Reaches altitude 10° 21:01:39 10° 311° (NW) 1,499 ? -18.1°
Maximum altitude 21:04:41 30° 16° (NNE) 773 ? -18.6°
Enters shadow 21:05:04 29° 30° (NNE) 790 ? -18.7°
